Location: Peterborough
(44.3091°N, 78.3197°W)
Time: 01:56:49
(UTC-04:00)

Vanguard 2 Rocket - Pass Details

Date: 22 March 2023
Orbit: 554 x 3314 km, 32.9° (Epoch: 02 June)

Event Time Altitude Azimuth Distance (km) Brightness Sun altitude
Rises 04:57:23 0° 272° (W) 6,594 - -24.2°
Reaches altitude 10° 05:04:08 10° 255° (WSW) 5,953 - -23.2°
Maximum altitude 05:13:55 17° 224° (SW) 5,673 - -21.6°
Exits shadow 05:16:11 16° 216° (SW) 5,723 10.4 -21.2°
Drops below altitude 10° 05:24:11 10° 192° (SSW) 6,199 10.8 -19.9°
Sets 05:31:43 0° 175° (S) 6,972 11.3 -18.6°
